User: anonymous   Login
Location: Unspecified
(0.0000°N, 0.0000°E)
Time: 05:48:30
(UTC+02:00)
Language:

NATO 3D Rocket - Orbit

View from above orbital plane
View from above orbital plane
View from above satellite
View from above satellite

Ground track
Ground track

The orbit data is extracted from the following two-line orbital elements,

1 15392U 84115B   15245.49462509 +.00000177 +00000-0 +28408-4 0  9996
2 15392 021.4912 058.1312 1034432 082.0754 310.8315 12.45501536384653
Epoch (UTC): 02 September 2015 11:52:15
Eccentricity: 0.1034432
inclination: 21.4912°
perigee height: 670 km
apogee height: 2296 km
right ascension of ascending node: 58.1312°
argument of perigee: 82.0754°
revolutions per day: 12.45501536
mean anomaly at epoch: 310.8315°
orbit number at epoch: 38465

The dashed part of the orbit path shows where the satellite is in the earth's shadow,  

DLR